OpenBCM V1.13 (Linux)

Packet Radio Mailbox

DB0FHN

[JN59NK Nuernberg]

 Login: GUEST





  
I6KZR  > KEPLER   15.01.03 17:40l 317 Lines 15753 Bytes #999 (0) @ WW
BID : 17053_IK6WID
Read: DB0FHN GUEST
Subj: 2L Keplerian Elements #007
Path: DB0FHN<DB0RGB<DB0MRW<DB0HOT<DB0ERF<DB0FBB<DB0GOS<ON0AR<ON0AR<7M3TJZ<
      IK6PYS<IT9LCP<IW9CNZ<IW8PHV<I8WYA<IW7BIN<IK7YTQ<IW7BNO<IK6IHH<IK6WID
Sent: 030107/2122Z @:IK6WID.#AP.IMAR.ITA.EU #:17053 [MONTE URANO]  FBB7.00i
From: I6KZR@IK6WID.#AP.IMAR.ITA.EU
To  : KEPLER@WW


OSCAR 7
1 07530U 74089B   03006.91531054 -.00000029 +00000-0 +10000-3 0 01471
2 07530 101.7689 055.0918 0012324 160.1961 199.9593 12.53563391287845
GOES 2
1 10061U 77048A   03005.42586557 -.00000270  00000-0  00000+0 0   466
2 10061  14.1214  13.7857 0013992 196.1981 163.7785  0.99397401 38395
GOES 3
1 10953U 78062A   03005.06002373 -.00000098  00000-0  00000+0 0  8806
2 10953  13.3897  17.5717 0004476 339.2875  20.7102  1.00277737 43055
GOES 6
1 14050U 83041A   03005.17933260  .00000053  00000-0  10000-3 0  4105
2 14050  10.3440  35.7625 0002834 353.9718   6.0447  1.00288576130197
OSCAR 10
1 14129U 83058B   03003.75114346  .00000223  00000-0  10000-3 0  9090
2 14129  25.8684 171.9489 6045675 316.0767   9.1337  2.05866504119127
OSCAR 11 (UoSAT 2)
1 14781U 84021B   03007.56762710  .00001060  00000-0  15475-3 0   386
2 14781  98.1118 341.1912 0009415 354.1312   5.9786 14.77850271 10031
NOAA 10
1 16969U 86073A   03006.98904957 +.00000149 +00000-0 +79495-4 0 06220
2 16969 098.7256 001.1995 0011933 208.3497 151.7035 14.27044718847835
GOES 7
1 17561U 87022A   02365.28731075  .00000092  00000-0  10000-3 0  8004
2 17561   7.5101  55.7833 0005728 297.8002  38.0435  1.00306786 41242
COSMOS 1861
1 18129U 87054A   03006.94287402 +.00000086 +00000-0 +76954-4 0 01867
2 18129 082.9238 178.0726 0012138 352.8702 007.2274 13.72696192778660
EUTELSAT 1-F4 (ECS 4)
1 18351U 87078B   02352.12522730 -.00000062  00000-0  10000-3 0   233
2 18351   7.0733  58.7527 0004962 184.4653 172.0391  0.96710043 42061
NOAA 11
1 19531U 88089A   03006.92960891 +.00000138 +00000-0 +95421-4 0 04593
2 19531 098.9079 088.4426 0011435 327.3013 032.7451 14.14514982736779
ASTRA 1A
1 19688U 88109B   03005.86217814  .00000034  00000-0  10000-3 0  5529
2 19688   1.2645  96.5336 0003294 181.4386 142.6513  1.00273600 31750
OSCAR 14 (UOSAT 3)
1 20437U 90005B   03006.71364680 +.00000107 +00000-0 +56123-4 0 01388
2 20437 098.2791 052.3616 0010724 334.5525 025.5127 14.31221400676366
OSCAR 15 (UOSAT 4)
1 20438U 90005C   03006.63217284 +.00000087 +00000-0 +49519-4 0 07695
2 20438 098.2532 041.5975 0010127 346.6384 013.4527 14.30184850676021
OSCAR 16 (PACSAT)
1 20439U 90005D   03006.73554623  .00000161  00000-0  76279-4 0  8347
2 20439  98.3250  63.8142 0011104 340.7589  19.3161 14.31452350676406
OSCAR 17 (DOVE)
1 20440U 90005E   03006.94241750 +.00000150 +00000-0 +71870-4 0 07198
2 20440 098.3436 067.8053 0011429 338.3030 021.7670 14.31728618676509
OSCAR 18 (WEBERSAT)
1 20441U 90005F   03006.92848935 +.00000120 +00000-0 +60941-4 0 09843
2 20441 098.3417 067.0317 0011440 340.2178 019.8560 14.31534582676480
OSCAR 19 (LUSAT)
1 20442U 90005G   03007.26119938  .00000154  00000-0  73572-4 0  9342
2 20442  98.3547  70.2982 0011929 337.5135  22.5523 14.31697293676583
JAS 1B (FUJI 2)
1 20480U 90013C   03006.90259461 -.00000019 +00000-0 +21921-4 0 04560
2 20480 099.0395 337.6873 0540997 100.4699 265.7801 12.83327575605048
HST
1 20580U 90037B   03007.18401134  .00002456  00000-0  19167-3 0  2892
2 20580  28.4676 313.3891 0004505 179.7664 314.5495 14.97623056496274
EUTELSAT 2-F1
1 20777U 90079B   03006.90690907 -.00000099  00000-0  10000-3 0   104
2 20777   3.3953  84.8352 0001627 236.6198 187.1507  1.00274370 25672
FENGYUN 1B
1 20788U 90081A   03007.57474883  .00000290  00000-0  21841-3 0  8527
2 20788  99.0215 350.1773 0015648 347.4341  12.6427 14.02138839631651
EUTELSAT 2-F2
1 21056U 91003B   03005.90956185  .00000120  00000-0  10000-3 0  6060
2 21056   2.6243  88.3260 0002439 217.4812 175.0548  1.00272230 31442
INFORMATOR 1
1 21087U 91006A   03007.05967876  .00000041  00000-0  27115-4 0  5892
2 21087  82.9415 348.8860 0036174  11.3260 348.8700 13.74921357599049
COSMOS 2123
1 21089U 91007A   03006.95284122 +.00000075 +00000-0 +62593-4 0 05019
2 21089 082.9203 212.9931 0030698 046.3310 314.0380 13.74399476597931
ASTRA 1B
1 21139U 91015A   02364.00000000  .00000128  00000-0  10000-3 0  1567
2 21139   0.0122 319.8851 0002995  65.1991  92.3752  1.00273184 31686
METEOSAT 5 (MOP 2)
1 21140U 91015B   03001.79588238 +.00000014 +00000-0 +10000-3 0 06590
2 21140 005.5239 070.2571 0001079 154.6659 225.7305 01.00278351045571
NOAA 12
1 21263U 91032A   03006.93515595 +.00000305 +00000-0 +14853-3 0 09251
2 21263 098.6210 357.2973 0013083 142.3302 217.8796 14.25048122605143
OSCAR 22 (UoSAT 5)
1 21575U 91050B   03006.95753711 +.00000250 +00000-0 +93853-4 0 06987
2 21575 098.1363 001.2414 0006343 262.4400 097.6072 14.39120623602154
METEOR 3-5
1 21655U 91056A   03006.90227719 +.00000051 +00000-0 +10000-3 0 05206
2 21655 082.5565 069.0149 0012749 309.5268 050.4727 13.16977647547863
UARS
1 21701U 91063B   03007.05656970  .00000633  00000-0  65934-4 0  7933
2 21701  56.9789 204.1087 0006584 116.2383 243.9345 15.02755345619324
EUTELSAT 2-F3
1 21803U 91083A   03006.19014339  .00000127  00000-0  10000-3 0  5051
2 21803   2.4886  89.5392 0002503 211.7786 253.8540  1.00272186 36566
INMARSAT 2-F3
1 21814U 91084B   03005.45905983 +.00000110 +00000-0 +10000-3 0 05957
2 21814 001.6603 056.8050 0002066 246.3942 184.6522 01.00268722040451
INMARSAT 2-F4
1 21940U 92021B   03002.32444389 -.00000352  00000-0  10000-3 0  5612
2 21940   2.3599  18.4893 0002289 249.2273  59.5600  1.00266746 39200
EUTELSAT 2-F4
1 22028U 92041B   03006.86560186 -.00000099  00000-0  10000-3 0  3121
2 22028   1.6103  93.0478 0005535 203.0748 109.1620  1.00271759 31342
OSCAR 23 (KITSAT 1)
1 22077U 92052B   03006.96411343 -.00000037 +00000-0 +10000-3 0 01601
2 22077 066.0858 214.9490 0014786 283.9569 075.9805 12.86407362488823
ASTRA 1C
1 22653U 93031A   02364.00000000  .00000128  00000-0  10000-3 0  7824
2 22653   0.0122 319.8851 0002995  65.1991  92.3588  1.00273184 30381
METEOR 2-21
1 22782U 93055A   03006.72146414  .00000067  00000-0  46695-4 0  4858
2 22782  82.5475 248.8809 0023710 105.5543 254.8232 13.83527259472160
KITSAT B
1 22825U 93061C   03007.52902495  .00000118  00000-0  62829-4 0  4563
2 22825  98.2786  39.3619 0009164  29.3575 330.8123 14.28926222483871
POSAT 1
1 22826U 93061D   03006.58566738 +.00000130 +00000-0 +67221-4 0 03143
2 22826 098.2810 039.5615 0009753 029.9942 330.1792 14.29147239483785
ITAMSAT
1 22828U 93061F   03006.64628950  .00000109  00000-0  58611-4 0  3955
2 22828  98.2753  39.8828 0010577   9.7915 350.3475 14.29492102451996
EYESAT A
1 22829U 93061G   03007.15304428  .00000173  00000-0  83227-4 0  4193
2 22829  98.2780  40.9472 0010230   8.8274 351.3085 14.29743643483991
METEOSAT 6
1 22912U 93073B   03006.22771413  .00000060  00000-0  00000+0 0  6244
2 22912   2.5727  82.6137 0000794 161.7040 312.3512  1.00268606 31861
GOES 8
1 23051U 94022A   03005.27859228 -.00000249  00000-0  00000+0 0  5484
2 23051   0.1899 106.6858 0002295 191.3132 191.6857  1.00261995 39363
ASTRA 1D
1 23331U 94070A   03005.84727424  .00000139  00000-0  00000+0 0  7998
2 23331   0.0572 204.3185 0002075  81.5776 148.3200  1.00273970 30436
RADIO ROSTO
1 23439U 94085A   03004.23801759 -.00000041 +00000-0 +41850-4 0 06736
2 23439 064.8140 114.7837 0148177 124.0952 237.4133 11.27548347330481
NOAA 14
1 23455U 94089A   03006.99656355 +.00000169 +00000-0 +11504-3 0 04799
2 23455 099.1879 024.4442 0009264 354.0828 006.0232 14.13279842413467
HIMAWARI 5 (GMS 5)
1 23522U 95011B   03004.73885251 -.00000282  00000-0  00000+0 0   382
2 23522   1.6540  83.4333 0000761  83.8980 342.8068  1.00273356 28442
HOT BIRD 1
1 23537U 95016B   02364.09542247  .00000091  00000-0  10000-3 0  5315
2 23537   0.1178  62.3444 0060331 260.0229 182.7219  1.00272908 28465
GOES 9
1 23581U 95025A   03006.26713892  .00000045  00000-0  00000+0 0  4608
2 23581   0.3840 278.1047 0008379 225.0711 297.2126  1.00030890 27931
INMARSAT 3-F1
1 23839U 96020A   03005.70486722  .00000015  00000-0  00000+0 0  8428
2 23839   0.0499  10.9410 0011132 142.0130 269.6770  1.00270751 24773
ASTRA 1F
1 23842U 96021A   02364.00000000  .00000128  00000-0  10000-3 0  5555
2 23842   0.0122 319.8851 0002995  65.1991  92.4014  1.00273184 24616
JAS 2
1 24278U 96046B   03006.94279789 -.00000039 +00000-0 -19303-5 0 05533
2 24278 098.5312 163.9646 0350823 327.1487 030.8273 13.52867628315540
UNAMSAT
1 24305U 96052B   03007.30765233  .00000205  00000-0  20364-3 0  6526
2 24305  82.9329 294.0327 0030818 324.6640  35.2463 13.73446690317682
INMARSAT 3-F2
1 24307U 96053A   03006.86963543 -.00000122  00000-0  00000+0 0   662
2 24307   0.0538  10.8023 0004597 264.2148 128.5444  1.00270701 23191
HOT BIRD 2
1 24665U 96067A   02364.09542247  .00000096  00000-0  10000-3 0  3374
2 24665   0.0380 203.9859 0010678  49.4036 252.3771  1.00274592 22753
INMARSAT 3-F3
1 24674U 96070A   03006.59523207  .00000041  00000-0  10000-3 0  9637
2 24674   0.0572   6.7833 0004061 268.6710 222.6871  1.00274229 22152
GOES 10
1 24786U 97019A   03006.35821715  .00000089  00000-0  00000+0 0  4917
2 24786   0.0381 113.8316 0002981 206.7641 138.4703  1.00276381 20905
INMARSAT 3-F4
1 24819U 97027A   03005.32604375 -.00000286  00000-0  10000-3 0  8638
2 24819   0.0188 310.9330 0003657 339.8101 237.1305  1.00269008 20568
FENGYUN 2A
1 24834U 97029A   02363.87585822 -.00000191  00000-0  00000+0 0  9415
2 24834   2.4466  88.8933 0001931 238.4439 172.5930  1.00268131 20338
HOT BIRD 3
1 24931U 97049A   02364.09542247  .00000095  00000-0  10000-3 0  4180
2 24931   0.0070 329.5839 0008855 285.9646 250.1886  1.00273530 19576
METEOSAT 7
1 24932U 97049B   03006.93070603 -.00000003  00000-0  00000+0 0  2228
2 24932   0.1230  32.0729 0001293 230.5013 178.4614  1.00271789 19590
